Time,TemperatureF,DewpointF,PressureIn,WindDirection,WindDirectionDegrees,WindSpeedMPH,WindSpeedGustMPH,Humidity,HourlyPrecipIn,Conditions,Clouds,dailyrainin,SoftwareType,DateUTC
2013-08-31 00:05:00,78.6,75.0,29.93,SW,226,1.0,2.0,89,0.00,,,0.00,weatherlink.com 1.10,2013-08-31 05:05:00,
2013-08-31 00:21:00,78.5,75.0,29.92,SSW,194,0.0,2.0,89,0.00,,,0.00,weatherlink.com 1.10,2013-08-31 05:21:00,
2013-08-31 00:35:00,78.3,75.0,29.92,SSW,207,0.0,1.0,90,0.00,,,0.00,weatherlink.com 1.10,2013-08-31 05:35:00,
2013-08-31 00:50:00,77.9,75.0,29.93,SSW,207,0.0,0.0,90,0.00,,,0.00,weatherlink.com 1.10,2013-08-31 05:50:00,
2013-08-31 01:05:00,77.6,75.0,29.93,SSW,207,0.0,0.0,91,0.00,,,0.00,weatherlink.com 1.10,2013-08-31 06:05:00,
2013-08-31 01:21:00,77.4,75.0,29.93,SSW,207,0.0,0.0,92,0.00,,,0.00,weatherlink.com 1.10,2013-08-31 06:21:00,
2013-08-31 01:36:00,77.1,74.0,29.93,SSW,207,0.0,0.0,91,0.00,,,0.00,weatherlink.com 1.10,2013-08-31 06:36:00,
2013-08-31 01:51:00,76.7,74.0,29.93,SSW,207,0.0,0.0,92,0.00,,,0.00,weatherlink.com 1.10,2013-08-31 06:51:00,
2013-08-31 02:06:00,76.5,74.0,29.93,SSW,207,0.0,0.0,93,0.00,,,0.00,weatherlink.com 1.10,2013-08-31 07:06:00,
2013-08-31 02:21:00,76.0,74.0,29.93,SSW,207,0.0,0.0,93,0.00,,,0.00,weatherlink.com 1.10,2013-08-31 07:21:00,
2013-08-31 02:36:00,76.1,74.0,29.93,SSW,207,0.0,0.0,94,0.00,,,0.00,weatherlink.com 1.10,2013-08-31 07:36:00,
2013-08-31 02:51:00,76.1,75.0,29.92,SSW,207,0.0,0.0,95,0.00,,,0.00,weatherlink.com 1.10,2013-08-31 07:51:00,
2013-08-31 03:06:00,76.2,74.0,29.93,SSW,207,0.0,0.0,94,0.00,,,0.00,weatherlink.com 1.10,2013-08-31 08:06:00,
2013-08-31 03:21:00,76.0,74.0,29.93,SSW,207,0.0,0.0,94,0.00,,,0.00,weatherlink.com 1.10,2013-08-31 08:21:00,
2013-08-31 03:36:00,75.9,74.0,29.93,SSW,207,0.0,0.0,94,0.00,,,0.00,weatherlink.com 1.10,2013-08-31 08:36:00,
2013-08-31 03:51:00,75.6,74.0,29.93,SSW,207,0.0,0.0,95,0.00,,,0.00,weatherlink.com 1.10,2013-08-31 08:51:00,
2013-08-31 04:06:00,75.7,74.0,29.93,SW,215,0.0,0.0,95,0.00,,,0.00,weatherlink.com 1.10,2013-08-31 09:06:00,
2013-08-31 04:21:00,75.5,74.0,29.93,SW,215,0.0,0.0,95,0.00,,,0.00,weatherlink.com 1.10,2013-08-31 09:21:00,
2013-08-31 04:36:00,76.0,74.0,29.93,SW,229,0.0,1.0,95,0.00,,,0.00,weatherlink.com 1.10,2013-08-31 09:36:00,
2013-08-31 04:51:00,76.0,74.0,29.93,West,273,0.0,1.0,94,0.00,,,0.00,weatherlink.com 1.10,2013-08-31 09:51:00,
2013-08-31 05:06:00,76.1,74.0,29.93,NW,305,0.0,2.0,94,0.00,,,0.00,weatherlink.com 1.10,2013-08-31 10:06:00,
2013-08-31 05:20:00,75.6,74.0,29.93,NW,304,0.0,0.0,94,0.00,,,0.00,weatherlink.com 1.10,2013-08-31 10:20:00,
2013-08-31 05:36:00,75.2,73.0,29.93,NW,304,0.0,0.0,94,0.00,,,0.00,weatherlink.com 1.10,2013-08-31 10:36:00,
2013-08-31 05:51:00,74.9,73.0,29.93,NW,305,0.0,0.0,95,0.00,,,0.00,weatherlink.com 1.10,2013-08-31 10:51:00,
2013-08-31 06:06:00,74.6,73.0,29.93,NW,304,0.0,0.0,95,0.00,,,0.00,weatherlink.com 1.10,2013-08-31 11:06:00,
2013-08-31 06:21:00,74.4,73.0,29.93,NW,304,0.0,0.0,95,0.00,,,0.00,weatherlink.com 1.10,2013-08-31 11:21:00,
2013-08-31 06:36:00,74.3,73.0,29.94,NW,304,0.0,0.0,96,0.00,,,0.00,weatherlink.com 1.10,2013-08-31 11:36:00,
2013-08-31 06:51:00,74.1,73.0,29.94,NW,305,0.0,0.0,96,0.00,,,0.00,weatherlink.com 1.10,2013-08-31 11:51:00,
2013-08-31 07:06:00,74.0,73.0,29.95,NW,305,0.0,0.0,96,0.00,,,0.00,weatherlink.com 1.10,2013-08-31 12:06:00,
2013-08-31 07:21:00,74.3,73.0,29.95,NW,305,0.0,0.0,96,0.00,,,0.00,weatherlink.com 1.10,2013-08-31 12:21:00,
2013-08-31 07:36:00,74.9,74.0,29.95,NW,304,0.0,0.0,97,0.00,,,0.00,weatherlink.com 1.10,2013-08-31 12:36:00,
2013-08-31 07:51:00,75.5,74.0,29.95,NW,304,0.0,0.0,96,0.00,,,0.00,weatherlink.com 1.10,2013-08-31 12:51:00,
2013-08-31 08:21:00,77.5,76.0,29.97,East,81,1.0,2.0,95,0.00,,,0.00,weatherlink.com 1.10,2013-08-31 13:21:00,
2013-08-31 08:36:00,79.0,76.0,29.97,NNE,15,2.0,2.0,92,0.00,,,0.00,weatherlink.com 1.10,2013-08-31 13:36:00,
2013-08-31 08:51:00,79.8,76.0,29.98,NW,304,0.0,2.0,89,0.00,,,0.00,weatherlink.com 1.10,2013-08-31 13:51:00,
2013-08-31 09:07:00,81.0,77.0,29.97,NNW,338,0.0,3.0,87,0.00,,,0.00,weatherlink.com 1.10,2013-08-31 14:07:00,
2013-08-31 09:22:00,82.6,77.0,29.98,NW,324,0.0,3.0,84,0.00,,,0.00,weatherlink.com 1.10,2013-08-31 14:22:00,
2013-08-31 09:37:00,83.7,77.0,29.97,NW,318,0.0,5.0,80,0.00,,,0.00,weatherlink.com 1.10,2013-08-31 14:37:00,
2013-08-31 09:52:00,85.2,77.0,29.98,SW,224,3.0,6.0,76,0.00,,,0.00,weatherlink.com 1.10,2013-08-31 14:52:00,
2013-08-31 10:07:00,85.3,76.0,29.97,WNW,297,2.0,6.0,75,0.00,,,0.00,weatherlink.com 1.10,2013-08-31 15:07:00,
2013-08-31 10:22:00,85.2,76.0,29.98,WSW,238,0.0,5.0,73,0.00,,,0.00,weatherlink.com 1.10,2013-08-31 15:22:00,
2013-08-31 10:37:00,86.0,76.0,29.97,SSW,195,1.0,7.0,72,0.00,,,0.00,weatherlink.com 1.10,2013-08-31 15:37:00,
2013-08-31 10:52:00,87.5,76.0,29.97,NW,317,4.0,4.0,68,0.00,,,0.00,weatherlink.com 1.10,2013-08-31 15:52:00,
2013-08-31 11:07:00,88.3,76.0,29.97,West,280,1.0,7.0,67,0.00,,,0.00,weatherlink.com 1.10,2013-08-31 16:07:00,
2013-08-31 11:22:00,89.7,75.0,29.97,SE,136,1.0,3.0,62,0.00,,,0.00,weatherlink.com 1.10,2013-08-31 16:22:00,
2013-08-31 11:37:00,89.7,74.0,29.97,SSW,200,3.0,8.0,61,0.00,,,0.00,weatherlink.com 1.10,2013-08-31 16:37:00,
2013-08-31 11:52:00,89.0,73.0,29.96,WSW,252,2.0,8.0,60,0.00,,,0.00,weatherlink.com 1.10,2013-08-31 16:52:00,
2013-08-31 12:07:00,90.3,74.0,29.95,SSE,152,3.0,8.0,58,0.00,,,0.00,weatherlink.com 1.10,2013-08-31 17:07:00,
2013-08-31 12:22:00,90.4,73.0,29.95,SSW,208,5.0,10.0,56,0.00,,,0.00,weatherlink.com 1.10,2013-08-31 17:22:00,
2013-08-31 12:37:00,90.1,72.0,29.94,WSW,250,3.0,10.0,56,0.00,,,0.00,weatherlink.com 1.10,2013-08-31 17:37:00,
2013-08-31 12:52:00,91.3,72.0,29.93,ESE,103,2.0,9.0,54,0.00,,,0.00,weatherlink.com 1.10,2013-08-31 17:52:00,
2013-08-31 13:07:00,91.1,73.0,29.93,SSE,156,2.0,11.0,55,0.00,,,0.00,weatherlink.com 1.10,2013-08-31 18:07:00,
2013-08-31 13:22:00,91.9,72.0,29.93,SW,219,10.0,10.0,53,0.00,,,0.00,weatherlink.com 1.10,2013-08-31 18:22:00,
2013-08-31 13:38:00,91.8,73.0,29.93,SSE,167,4.0,10.0,54,0.00,,,0.00,weatherlink.com 1.10,2013-08-31 18:38:00,
2013-08-31 13:52:00,92.1,74.0,29.92,WSW,241,8.0,11.0,55,0.00,,,0.00,weatherlink.com 1.10,2013-08-31 18:52:00,
2013-08-31 14:07:00,92.8,72.0,29.92,South,180,7.0,11.0,51,0.00,,,0.00,weatherlink.com 1.10,2013-08-31 19:07:00,
2013-08-31 14:22:00,93.0,72.0,29.91,South,191,7.0,13.0,50,0.00,,,0.00,weatherlink.com 1.10,2013-08-31 19:22:00,
2013-08-31 14:37:00,92.0,71.0,29.91,SW,215,11.0,15.0,51,0.00,,,0.00,weatherlink.com 1.10,2013-08-31 19:37:00,
2013-08-31 14:53:00,92.5,71.0,29.91,ESE,122,4.0,13.0,49,0.00,,,0.00,weatherlink.com 1.10,2013-08-31 19:53:00,
2013-08-31 15:08:00,92.5,70.0,29.89,SSW,212,9.0,16.0,48,0.00,,,0.00,weatherlink.com 1.10,2013-08-31 20:08:00,
2013-08-31 15:23:00,92.4,71.0,29.89,SW,214,12.0,15.0,50,0.00,,,0.00,weatherlink.com 1.10,2013-08-31 20:23:00,
2013-08-31 15:38:00,92.6,72.0,29.88,SW,221,8.0,17.0,52,0.00,,,0.00,weatherlink.com 1.10,2013-08-31 20:38:00,
2013-08-31 15:53:00,92.0,71.0,29.88,SW,214,12.0,18.0,51,0.00,,,0.00,weatherlink.com 1.10,2013-08-31 20:53:00,
2013-08-31 16:08:00,91.8,72.0,29.88,WSW,245,9.0,16.0,53,0.00,,,0.00,weatherlink.com 1.10,2013-08-31 21:08:00,
2013-08-31 16:23:00,92.2,72.0,29.87,WSW,246,10.0,14.0,52,0.00,,,0.00,weatherlink.com 1.10,2013-08-31 21:23:00,
2013-08-31 16:38:00,92.2,73.0,29.87,SW,236,7.0,17.0,53,0.00,,,0.00,weatherlink.com 1.10,2013-08-31 21:38:00,
2013-08-31 16:53:00,91.6,73.0,29.87,SW,221,9.0,17.0,54,0.00,,,0.00,weatherlink.com 1.10,2013-08-31 21:53:00,
2013-08-31 17:08:00,90.8,73.0,29.87,South,170,9.0,14.0,57,0.00,,,0.00,weatherlink.com 1.10,2013-08-31 22:08:00,
2013-08-31 17:23:00,90.8,73.0,29.87,SW,226,10.0,15.0,56,0.00,,,0.00,weatherlink.com 1.10,2013-08-31 22:23:00,
2013-08-31 17:38:00,90.5,73.0,29.86,SW,231,6.0,14.0,57,0.00,,,0.00,weatherlink.com 1.10,2013-08-31 22:38:00,
2013-08-31 17:52:00,90.4,73.0,29.87,SSW,210,5.0,11.0,57,0.00,,,0.00,weatherlink.com 1.10,2013-08-31 22:52:00,
2013-08-31 18:07:00,90.0,74.0,29.86,SW,235,7.0,10.0,59,0.00,,,0.00,weatherlink.com 1.10,2013-08-31 23:07:00,
2013-08-31 18:22:00,89.8,74.0,29.86,WSW,238,6.0,12.0,59,0.00,,,0.00,weatherlink.com 1.10,2013-08-31 23:22:00,
2013-08-31 18:37:00,89.4,73.0,29.86,SW,214,5.0,11.0,58,0.00,,,0.00,weatherlink.com 1.10,2013-08-31 23:37:00,
2013-08-31 18:52:00,88.8,72.0,29.86,South,187,3.0,11.0,58,0.00,,,0.00,weatherlink.com 1.10,2013-08-31 23:52:00,
2013-08-31 19:07:00,88.1,72.0,29.86,SSW,203,6.0,11.0,60,0.00,,,0.00,weatherlink.com 1.10,2013-09-01 00:07:00,
2013-08-31 19:22:00,87.4,72.0,29.87,SSE,148,3.0,6.0,61,0.00,,,0.00,weatherlink.com 1.10,2013-09-01 00:22:00,
2013-08-31 19:37:00,86.1,72.0,29.87,SSE,153,2.0,6.0,63,0.00,,,0.00,weatherlink.com 1.10,2013-09-01 00:37:00,
2013-08-31 19:52:00,85.1,72.0,29.87,SW,217,3.0,5.0,65,0.00,,,0.00,weatherlink.com 1.10,2013-09-01 00:52:00,
2013-08-31 20:07:00,84.2,72.0,29.87,SW,223,4.0,5.0,67,0.00,,,0.00,weatherlink.com 1.10,2013-09-01 01:07:00,
2013-08-31 20:22:00,83.3,72.0,29.87,SSW,199,2.0,4.0,69,0.00,,,0.00,weatherlink.com 1.10,2013-09-01 01:22:00,
2013-08-31 20:37:00,82.6,72.0,29.88,SW,215,3.0,3.0,71,0.00,,,0.00,weatherlink.com 1.10,2013-09-01 01:37:00,
2013-08-31 20:52:00,81.8,73.0,29.88,SSW,212,3.0,7.0,74,0.00,,,0.00,weatherlink.com 1.10,2013-09-01 01:52:00,
2013-08-31 21:07:00,81.5,72.0,29.89,SW,231,3.0,7.0,74,0.00,,,0.00,weatherlink.com 1.10,2013-09-01 02:07:00,
2013-08-31 21:22:00,81.3,73.0,29.89,SW,215,5.0,7.0,75,0.00,,,0.00,weatherlink.com 1.10,2013-09-01 02:22:00,
2013-08-31 21:37:00,80.7,73.0,29.89,SSE,163,3.0,5.0,77,0.00,,,0.00,weatherlink.com 1.10,2013-09-01 02:37:00,
2013-08-31 21:52:00,80.4,73.0,29.90,South,172,1.0,5.0,79,0.00,,,0.00,weatherlink.com 1.10,2013-09-01 02:52:00,
2013-08-31 22:07:00,80.2,73.0,29.90,SW,218,2.0,5.0,80,0.00,,,0.00,weatherlink.com 1.10,2013-09-01 03:07:00,
2013-08-31 22:22:00,79.8,73.0,29.90,SSW,198,3.0,4.0,81,0.00,,,0.00,weatherlink.com 1.10,2013-09-01 03:22:00,
2013-08-31 22:37:00,79.6,74.0,29.89,SSE,153,2.0,4.0,82,0.00,,,0.00,weatherlink.com 1.10,2013-09-01 03:37:00,
2013-08-31 22:52:00,79.3,74.0,29.89,SSW,210,2.0,3.0,83,0.00,,,0.00,weatherlink.com 1.10,2013-09-01 03:52:00,
2013-08-31 23:07:00,79.0,74.0,29.89,SW,226,2.0,2.0,84,0.00,,,0.00,weatherlink.com 1.10,2013-09-01 04:07:00,
2013-08-31 23:22:00,78.8,74.0,29.89,SW,219,1.0,3.0,85,0.00,,,0.00,weatherlink.com 1.10,2013-09-01 04:22:00,
2013-08-31 23:37:00,78.5,74.0,29.89,SW,219,1.0,3.0,86,0.00,,,0.00,weatherlink.com 1.10,2013-09-01 04:37:00,
2013-08-31 23:52:00,78.4,74.0,29.89,SSW,211,1.0,3.0,86,0.00,,,0.00,weatherlink.com 1.10,2013-09-01 04:52:00,